Weather in Magaramkent

Russia / Republic of Dagestan     41°37′03″N   48°20′53″E
temp.,
°C
wind,
m/s
gust,
m/s
humid.,
%
clouds,
%
prec.,
mm/h
press.,
hPa
HPBL,
m
16 january, sun
sun1600:00−4sw2277100 0.1 100840
03:00−4sw2270100 0.1 101124
06:00−4sw3270100 0.0 101228
09:00−3se2472100 0.0 1014371
12:00−3ese4589100 0.3 1015581
15:00−3e4593100 1.1 1016480
18:00−4ene2497100 1.4 1018296
21:00−5wsw1194100 2.4 1020127
17 january, mon
mon1700:00−6wsw457294 0.9 1022143
03:00−7w3489100 2.8 1023137
06:00−7wsw2490100 1.2 1025127
09:00−5ssw1390100 2.2 1026306
12:00−4e338797 0.8 1024647
15:00−4ese338989 1.1 1024481
18:00−8sw338625 0.1 102524
21:00−9sw44611 0.1 102440
18 january, tue
tue1800:00−8sw56540 0.0 102156
03:00−8sw55520 0.0 101853
06:00−7sw55510 0.0 101646
09:00−3sw34590 0.0 101256
12:00+1se11640 0.0 100999
15:000ene118059 0.0 100835
18:00−3wsw436940 0.0 101122
21:00−2wsw4462100 0.0 101031
19 january, wed
wed1900:00−3wsw44594 0.0 101235
03:00−3wsw44580 0.0 101334
06:00−5sw3362100 0.0 101518
09:00−2n016417 0.0 101574
12:00−1ne226710 0.0 1015427
15:00−2e227960 0.0 1015487
18:00−5s1196100 0.1 101816
21:00−5ssw229355 0.3 101726
20 january, thu
thu2000:00−5sw338197 0.0 101741
03:00−5w119069 0.1 101758
06:00−5wsw119599 0.1 101837
09:00−4nne1194100 0.8 1019232
12:00−4ne3393100 1.0 1019459
15:00−5nne3495100 2.1 1019380
18:00−6nne119692 0.9 1022138
21:00−8sw328656 1.0 102323